EW9479 Weather Reports


Display with metric or nautical units.
time (UTC)temp
F
wind
direction
speed
MPH
gust
MPH
rain 1hr
in
rain 24hr
in
rain mn
in
humidity
%
barometer
mb
20201020144134 69 220 1.0 3.0 0.00 0.00 0.00 88 1020.6
20201020143124 68 237 1.0 3.0 0.00 0.00 0.00 89 1020.5
20201020142126 67 255 1.0 4.0 0.00 0.00 0.00 91 1020.5
20201020141125 66 242 2.0 3.0 0.00 0.00 0.00 93 1020.4
20201020140129 65 218 1.0 3.0 0.00 0.00 0.00 94 1020.5
20201020135124 64 238 1.0 3.0 0.00 0.00 0.00 96 1020.5
20201020134126 64 225 0.0 0.0 0.00 0.00 0.00 97 1020.5
20201020133127 63 38 0.0 2.0 0.00 0.00 0.00 98 1020.4
20201020132124 63 23 0.0 0.0 0.00 0.00 0.00 98 1020.3
20201020131126 62 158 0.0 2.0 0.00 0.00 0.00 98 1020.1
20201020130150 62 78 1.0 2.0 0.00 0.00 0.00 98 1020.1
20201020125124 62 68 0.0 0.0 0.00 0.00 0.00 98 1020.1
20201020124125 61 45 0.0 0.0 0.00 0.00 0.00 98 1019.9
20201020123126 61 158 0.0 0.0 0.00 0.00 0.00 98 1019.9
20201020122123 61 135 0.0 0.0 0.00 0.00 0.00 98 1019.8
20201020121124 61 113 0.0 0.0 0.00 0.00 0.00 98 1019.9
20201020120127 62 32 1.0 2.0 0.00 0.00 0.00 97 1019.8
20201020115124 62 68 0.0 0.0 0.00 0.00 0.00 97 1019.8
20201020114124 63 90 0.0 0.0 0.00 0.00 0.00 96 1019.5
20201020113128 63 90 0.0 0.0 0.00 0.00 0.00 96 1019.6
20201020112125 64 158 0.0 0.0 0.00 0.00 0.00 95 1019.4
20201020111124 64 162 1.0 2.0 0.00 0.00 0.00 95 1019.5
20201020110126 64 166 1.0 3.0 0.00 0.00 0.00 94 1019.4
20201020105123 65 315 0.0 2.0 0.00 0.00 0.00 92 1019.4
20201020104124 65 310 1.0 2.0 0.00 0.00 0.00 92 1019.4
20201020103129 66 257 1.0 2.0 0.00 0.00 0.00 91 1019.2
20201020102131 66 195 0.0 2.0 0.00 0.00 0.00 91 1019.0
20201020101123 66 175 1.0 3.0 0.00 0.00 0.00 91 1018.6
20201020100128 66 216 2.0 3.0 0.00 0.00 0.00 92 1018.6
20201020095123 66 198 2.0 4.0 0.00 0.00 0.00 92 1018.6
20201020094123 66 199 1.0 5.0 0.00 0.00 0.00 92 1018.8
20201020093131 66 204 1.0 3.0 0.00 0.00 0.00 92 1018.9
20201020092128 66 218 1.0 2.0 0.00 0.00 0.00 92 1018.8
20201020091124 66 216 0.0 2.0 0.00 0.00 0.00 93 1018.6
20201020090125 66 227 0.0 3.0 0.00 0.00 0.00 93 1018.5
20201020085127 66 45 0.0 0.0 0.00 0.00 0.00 93 1018.5
20201020084126 66 113 0.0 0.0 0.00 0.00 0.00 93 1018.5
20201020083128 66 158 0.0 0.0 0.00 0.00 0.00 92 1018.6
20201020082126 66 219 0.0 2.0 0.00 0.00 0.00 93 1018.5
20201020081132 66 209 0.0 2.0 0.00 0.00 0.00 93 1018.4
20201020080127 66 226 1.0 4.0 0.00 0.00 0.00 93 1018.4
20201020075127 66 188 0.0 3.0 0.00 0.00 0.00 94 1018.4
20201020074124 65 83 0.0 2.0 0.00 0.00 0.00 95 1018.4
20201020073131 65 203 0.0 0.0 0.00 0.00 0.00 95 1018.4
20201020072124 65 68 0.0 0.0 0.00 0.00 0.00 95 1018.4
20201020071125 65 68 0.0 0.0 0.00 0.00 0.00 94 1018.2
20201020070130 65 90 0.0 0.0 0.00 0.00 0.00 94 1018.3
20201020065124 65 113 0.0 0.0 0.00 0.00 0.00 93 1018.3
20201020064124 66 113 0.0 0.0 0.00 0.00 0.00 92 1018.3
20201020063126 66 113 0.0 0.0 0.00 0.00 0.00 92 1018.3
20201020062124 66 158 0.0 0.0 0.00 0.00 0.00 91 1018.2
20201020061124 67 68 0.0 0.0 0.00 0.00 0.00 90 1018.3
20201020060126 67 180 0.0 0.0 0.00 0.00 0.00 89 1018.3
20201020055127 68 215 1.0 5.0 0.00 0.00 0.00 89 1018.3
20201020054124 68 204 1.0 3.0 0.00 0.00 0.00 88 1018.2
20201020053125 68 194 1.0 4.0 0.00 0.00 0.00 88 1018.1
20201020052130 68 200 1.0 3.0 0.00 0.00 0.00 88 1018.3
20201020051131 68 196 2.0 3.0 0.00 0.00 0.00 88 1018.1
20201020050124 69 210 1.0 4.0 0.00 0.00 0.00 88 1018.1
20201020045126 69 228 1.0 3.0 0.00 0.00 0.00 87 1018.1
20201020044126 69 197 2.0 3.0 0.00 0.00 0.00 87 1018.0
20201020043123 69 215 2.0 3.0 0.00 0.00 0.00 87 1018.2
20201020042128 70 198 1.0 5.0 0.00 0.00 0.00 87 1018.2
20201020041124 70 191 2.0 3.0 0.00 0.00 0.00 87 1018.5
20201020040125 70 208 2.0 3.0 0.00 0.00 0.00 87 1018.5
20201020035125 70 216 2.0 5.0 0.00 0.00 0.00 87 1018.5
20201020034123 70 197 1.0 4.0 0.00 0.00 0.00 87 1018.6
20201020033124 70 185 2.0 4.0 0.00 0.00 0.00 87 1018.5
20201020032128 70 204 2.0 4.0 0.00 0.00 0.00 87 1018.5
20201020031126 70 204 1.0 3.0 0.00 0.00 0.00 88 1018.4
20201020030123 70 209 2.0 4.0 0.00 0.00 0.00 88 1018.5
20201020025127 70 210 1.0 3.0 0.00 0.00 0.00 89 1018.5
20201020024123 70 202 1.0 3.0 0.00 0.00 0.00 89 1018.4
20201020023123 70 184 2.0 3.0 0.00 0.00 0.00 90 1018.4
20201020022126 69 175 1.0 3.0 0.00 0.00 0.00 91 1018.1
20201020021124 69 158 0.0 0.0 0.00 0.00 0.00 91 1018.1
20201020020124 69 68 0.0 0.0 0.00 0.00 0.00 91 1018.0
20201020015128 69 68 0.0 0.0 0.00 0.00 0.00 90 1018.0
20201020014124 69 68 0.0 0.0 0.00 0.00 0.00 89 1018.0
20201020013123 70 68 0.0 0.0 0.00 0.00 0.00 88 1017.9
20201020012125 70 68 0.0 0.0 0.00 0.00 0.00 89 1017.8
20201020011124 70 68 0.0 0.0 0.00 0.00 0.00 88 1017.7
20201020010124 71 293 0.0 0.0 0.00 0.00 0.00 87 1017.6
20201020005125 71 45 0.0 0.0 0.00 0.00 0.00 87 1017.6
20201020004132 71 45 0.0 0.0 0.00 0.00 0.00 85 1017.6
20201020003123 72 160 1.0 2.0 0.00 0.00 0.00 84 1017.8
20201020002133 72 158 0.0 0.0 0.00 0.00 0.00 84 1017.7
20201020001123 72 113 0.0 0.0 0.00 0.00 0.00 83 1017.6
20201020000129 72 180 0.0 0.0 0.00 0.00 0.00 81 1017.5
20201019235128 73 180 0.0 0.0 0.00 0.00 0.00 81 1017.5
20201019234123 73 169 0.0 1.0 0.00 0.00 0.00 80 1017.2
20201019233125 74 182 0.0 2.0 0.00 0.00 0.00 80 1017.2
20201019232124 74 191 1.0 3.0 0.00 0.00 0.00 79 1017.1
20201019231126 75 178 1.0 3.0 0.00 0.00 0.00 77 1017.1
20201019230126 75 164 1.0 3.0 0.00 0.00 0.00 75 1017.1
20201019225124 76 178 2.0 3.0 0.00 0.00 0.00 74 1017.1
20201019224123 77 182 1.0 3.0 0.00 0.00 0.00 72 1017.3
20201019223128 78 218 0.0 2.0 0.00 0.00 0.00 70 1017.2
20201019222123 79 201 1.0 3.0 0.00 0.00 0.00 68 1017.2
20201019221124 80 217 2.0 5.0 0.00 0.00 0.00 67 1017.2
20201019220128 80 232 4.0 6.0 0.00 0.00 0.00 66 1016.9
20201019215125 82 240 4.0 7.0 0.00 0.00 0.00 64 1016.9
20201019214129 81 226 3.0 7.0 0.00 0.00 0.00 65 1017.0
20201019213123 80 230 4.0 7.0 0.00 0.00 0.00 65 1016.7
20201019212127 83 217 3.0 9.0 0.00 0.00 0.00 62 1016.7
20201019211123 82 214 2.0 4.0 0.00 0.00 0.00 64 1016.8
20201019210125 80 243 4.0 8.0 0.00 0.00 0.00 65 1016.7
20201019205125 81 223 4.0 6.0 0.00 0.00 0.00 63 1016.7
20201019204123 82 232 5.0 9.0 0.00 0.00 0.00 62 1016.8
20201019203123 81 234 5.0 11.0 0.00 0.00 0.00 64 1016.9
20201019202125 83 207 3.0 8.0 0.00 0.00 0.00 61 1017.0
20201019201127 83 244 4.0 9.0 0.00 0.00 0.00 61 1017.1
20201019200124 83 218 4.0 7.0 0.00 0.00 0.00 60 1017.0
20201019195130 84 239 6.0 12.0 0.00 0.00 0.00 59 1017.0
20201019194125 85 199 4.0 7.0 0.00 0.00 0.00 59 1017.0
20201019193125 84 236 5.0 8.0 0.00 0.00 0.00 59 1017.1
20201019192126 83 208 5.0 9.0 0.00 0.00 0.00 61 1017.4
20201019191124 82 223 7.0 11.0 0.00 0.00 0.00 63 1017.5
20201019190125 82 225 5.0 12.0 0.00 0.00 0.00 62 1017.6
20201019185126 81 236 7.0 11.0 0.00 0.00 0.00 63 1017.6
20201019184123 81 239 7.0 11.0 0.00 0.00 0.00 65 1018.1
20201019183123 80 246 9.0 14.0 0.00 0.00 0.00 67 1018.3
20201019182125 80 245 6.0 10.0 0.00 0.00 0.00 66 1018.5
20201019181123 78 242 6.0 10.0 0.00 0.00 0.00 69 1018.7
20201019180124 77 228 8.0 13.0 0.00 0.00 0.00 70 1018.8
20201019175125 78 233 7.0 12.0 0.00 0.00 0.00 70 1018.8
20201019174127 77 241 9.0 15.0 0.00 0.00 0.00 72 1019.1
20201019173124 76 237 5.0 9.0 0.00 0.00 0.00 72 1019.3
20201019172123 77 243 7.0 13.0 0.00 0.00 0.00 71 1019.4
20201019171131 77 228 6.0 11.0 0.00 0.00 0.00 71 1019.5
20201019170127 77 218 5.0 7.0 0.00 0.00 0.00 72 1019.5
20201019165123 75 235 6.0 10.0 0.00 0.00 0.00 73 1019.5
20201019164128 75 235 6.0 11.0 0.00 0.00 0.00 73 1019.2
20201019163124 75 234 7.0 12.0 0.00 0.00 0.00 74 1019.3
20201019162124 76 226 4.0 9.0 0.00 0.00 0.00 73 1019.4
20201019161125 74 226 4.0 7.0 0.00 0.00 0.00 76 1019.6
20201019160122 72 221 4.0 7.0 0.00 0.00 0.00 78 1019.6
20201019155124 72 224 4.0 6.0 0.00 0.00 0.00 78 1019.6
20201019154124 72 234 4.0 7.0 0.00 0.00 0.00 80 1019.6
20201019153125 71 222 4.0 7.0 0.00 0.00 0.00 80 1019.6
20201019152127 70 239 5.0 8.0 0.00 0.00 0.00 81 1019.6
20201019151126 70 235 5.0 12.0 0.00 0.00 0.00 81 1019.5
20201019150128 70 219 4.0 10.0 0.00 0.00 0.00 82 1019.4
20201019145122 69 206 4.0 8.0 0.00 0.00 0.00 84 1019.4